Simultaneous Nadir Overpasses (SNOs) Predictions

Prediction of SNOs between FY3D and NOAA-19 Satellite Orbit:

Table of predicted SNOs for the next 14.0 days since TLE Epoch: 5/25/2019
Index Date (FY3D) Time (FY3D) Lat,Lon (FY3D) SZA (FY3D ) Date (NOAA-19) Time (NOAA-19) Lat,Lon (NOAA-19) SZA (NOAA-19 ) Distance(km) Time Diff (sec)
1 05/29/2019 09:53:17 -80.14, 172.74 119.23 05/29/2019 09:52:04 -80.13, 172.84 119.22 2.50 73
2 05/29/2019 10:44:02 80.14, -19.96 60.77 05/29/2019 10:43:02 80.13, -19.80 60.77 3.15 60
3 05/29/2019 11:34:46 -80.14, 147.42 119.25 05/29/2019 11:34:05 -80.12, 147.29 119.23 2.86 41
4 05/29/2019 12:25:31 80.14, -45.28 60.75 05/29/2019 12:25:03 80.13, -45.35 60.76 1.61 28
5 05/29/2019 13:16:15 -80.13, 122.10 119.27 05/29/2019 13:16:05 -80.14, 122.07 119.26 1.28 10
6 05/29/2019 14:07:00 80.13, -70.60 60.73 05/29/2019 14:07:03 80.15, -70.58 60.74 1.78 3
7 05/29/2019 14:57:45 -80.16, 96.47 119.24 05/29/2019 14:58:06 -80.14, 96.52 119.26 2.02 21
8 05/29/2019 15:48:30 80.16, -96.23 60.76 05/29/2019 15:49:04 80.15, -96.13 60.73 2.24 34
9 05/29/2019 16:39:14 -80.15, 71.15 119.26 05/29/2019 16:40:06 -80.16, 71.30 119.29 2.88 52
10 05/29/2019 17:29:59 80.15,-121.55 60.75 05/29/2019 17:31:05 80.14,-121.68 60.72 2.74 66




NCC Satellite Simultaneous Nadir Overpasses (SNOs) Prediction Service
